FW6326 Weather Reports


time (UTC)temp
C
wind
direction
speed
KPH
gust
KPH
rain 1hr
cm
rain 24hr
cm
rain mn
cm
humidity
%
barometer
mb
20260508143057 11 197 4.8 8.0 0.00 2.97 0.00 88 1001.6
20260508141600 11 186 4.8 8.0 0.00 2.97 0.00 89 1001.8
20260508140113 10 196 4.8 8.0 0.00 2.97 0.00 89 1001.9
20260508134558 10 197 6.4 8.0 0.00 3.00 0.00 90 1002.0
20260508133055 10 0 0.0 0.0 0.00 3.00 0.00 91 1002.1
20260508131603 10 114 1.6 4.8 0.00 3.00 0.00 92 1002.0
20260508130056 10 0 0.0 4.8 0.00 3.00 0.00 93 1001.8
20260508124605 10 335 0.0 8.0 0.00 3.00 0.00 93 1001.8
20260508123055 10 4 3.2 11.3 0.00 3.00 0.00 94 1001.9
20260508121604 9 316 4.8 16.1 0.00 3.00 0.00 95 1002.2
20260508120059 8 0 4.8 12.9 0.00 3.00 0.00 95 1002.2
20260508114553 8 27 0.0 9.7 0.00 3.00 0.00 95 1002.0
20260508113057 8 0 0.0 6.4 0.00 3.00 0.00 95 1002.4
20260508111600 8 62 0.0 4.8 0.00 3.00 0.00 95 1002.5
20260508110100 8 342 0.0 3.2 0.00 3.00 0.00 95 1002.2
20260508104555 7 0 0.0 0.0 0.00 3.10 0.00 95 1001.9
20260508103121 6 0 0.0 0.0 0.00 3.10 0.00 95 1001.9
20260508101614 6 0 0.0 0.0 0.00 3.10 0.00 95 1001.8
20260508100054 5 0 0.0 0.0 0.00 3.10 0.00 95 1001.8
20260508094607 4 0 0.0 0.0 0.00 3.10 0.00 95 1001.9
20260508093053 4 0 0.0 0.0 0.00 3.10 0.00 94 1002.0
20260508091556 4 0 0.0 0.0 0.00 3.10 0.00 94 1001.7
20260508090107 5 0 0.0 0.0 0.00 3.10 0.00 95 1001.5
20260508084552 5 0 0.0 0.0 0.00 3.10 0.00 94 1001.7
20260508083112 5 0 0.0 0.0 0.00 3.10 0.00 94 1001.9
20260508081555 6 0 0.0 0.0 0.00 3.10 0.00 95 1001.7
20260508080054 6 287 1.6 4.8 0.00 3.10 0.00 95 1001.8
20260508074555 6 0 0.0 0.0 0.00 3.10 0.00 95 1001.8
20260508073052 6 310 0.0 3.2 0.00 3.10 0.00 95 1001.6
20260508071554 6 309 0.0 4.8 0.00 3.10 0.00 95 1001.2
20260508070055 6 325 0.0 4.8 0.00 3.10 0.00 95 1001.4
20260508064557 6 0 0.0 3.2 0.00 3.10 0.00 95 1001.5
20260508063056 6 0 0.0 4.8 0.00 3.10 0.00 95 1001.4
20260508061559 7 0 0.0 4.8 0.00 3.10 0.00 95 1001.4
20260508060057 7 0 0.0 6.4 0.00 3.10 0.00 95 1001.5
20260508054601 7 321 1.6 6.4 0.00 3.10 0.00 95 1001.6
20260508053055 7 310 3.2 6.4 0.00 3.10 0.00 95 1001.8
20260508051555 7 0 0.0 3.2 0.00 3.10 0.00 95 1001.6
20260508050057 7 318 1.6 8.0 0.00 3.10 0.00 95 1001.7
20260508044552 6 0 0.0 4.8 0.00 3.10 0.00 95 1002.0
20260508043101 6 0 0.0 0.0 0.00 3.10 0.00 95 1001.8
20260508041558 6 0 0.0 0.0 0.00 3.10 0.00 95 1001.6
20260508040052 6 0 0.0 0.0 0.00 3.10 0.00 95 1001.6
20260508034558 6 0 0.0 0.0 0.00 3.10 0.00 95 1001.9
20260508033055 6 0 0.0 0.0 0.00 3.10 0.00 95 1002.1
20260508031557 6 0 0.0 0.0 0.00 3.10 0.00 95 1002.2
20260508030058 6 0 0.0 0.0 0.00 3.10 0.00 95 1002.2
20260508024555 7 0 0.0 0.0 0.00 3.10 3.10 95 1001.9
20260508023053 7 0 0.0 0.0 0.00 3.10 3.10 95 1002.1
20260508021556 6 0 0.0 3.2 0.00 3.10 3.10 95 1002.2
20260508020057 7 170 3.2 4.8 0.00 3.10 3.10 95 1002.4
20260508014558 6 0 0.0 6.4 0.00 3.10 3.10 95 1002.3
20260508013055 6 0 0.0 0.0 0.00 3.10 3.10 95 1002.5
20260508011555 6 0 0.0 4.8 0.00 3.10 3.10 95 1002.4
20260508010056 6 226 0.0 3.2 0.00 3.10 3.10 95 1002.3
20260508004601 6 208 4.8 8.0 0.00 3.10 3.10 94 1002.3
20260508003107 6 190 3.2 6.4 0.00 3.10 3.10 95 1002.3
20260508001558 7 220 1.6 9.7 0.00 3.10 3.10 95 1002.0
20260508000100 7 198 4.8 6.4 0.00 3.10 3.10 95 1002.3
20260507234558 7 0 0.0 0.0 0.00 3.10 3.10 95 1001.7
20260507233052 7 0 0.0 0.0 0.00 3.10 3.10 95 1001.6
20260507231552 7 0 0.0 1.6 0.00 3.10 3.10 95 1001.7
20260507230055 7 0 0.0 6.4 0.00 3.10 3.10 95 1002.0
20260507224611 7 232 3.2 11.3 0.00 3.10 3.10 95 1002.1
20260507223059 7 225 3.2 12.9 0.00 3.10 3.10 95 1002.2
20260507221553 7 231 6.4 12.9 0.00 3.10 3.10 95 1002.4
20260507220054 7 227 4.8 19.3 0.00 3.10 3.10 95 1002.3
20260507214603 7 215 6.4 25.7 0.00 3.10 3.10 95 1002.6
20260507213054 7 223 16.1 22.5 0.00 3.10 3.10 95 1002.6
20260507211620 7 227 14.5 25.7 0.00 3.10 3.10 95 1002.5
20260507210056 8 229 17.7 25.7 0.00 3.10 3.10 95 1002.6
20260507204601 8 238 22.5 38.6 0.00 3.10 3.10 95 1002.7
20260507203054 8 228 19.3 30.6 0.03 3.10 3.10 95 1002.9
20260507201610 8 194 12.9 20.9 0.05 3.10 3.10 95 1002.9
20260507194558 8 116 3.2 11.3 0.20 3.10 3.10 94 1001.8
20260507193107 8 138 4.8 20.9 0.28 3.05 3.05 94 1001.9
20260507191558 8 208 11.3 19.3 0.51 3.02 3.02 95 1003.2
20260507190057 8 141 6.4 17.7 0.61 2.97 2.97 94 1003.0
20260507184555 8 170 6.4 14.5 0.79 2.87 2.87 94 1003.7
20260507183100 9 208 6.4 12.9 0.94 2.74 2.74 95 1004.3
20260507181556 8 233 9.7 19.3 1.07 2.51 2.51 95 1004.6
20260507180058 8 227 9.7 19.3 1.80 2.34 2.34 94 1004.5
20260507174556 8 245 8.0 14.5 1.88 2.06 2.06 95 1004.8
20260507173103 8 239 9.7 19.3 1.60 1.78 1.78 94 1005.1
20260507171557 8 213 12.9 27.4 1.24 1.40 1.40 95 1005.6
20260507170056 7 213 20.9 33.8 0.36 0.53 0.53 95 1005.3
20260507164556 7 175 25.7 37.0 0.03 0.18 0.18 95 1004.4
20260507163053 8 152 25.7 43.5 0.00 0.18 0.18 95 1004.4
20260507161601 7 175 24.1 38.6 0.00 0.15 0.15 95 1005.0
20260507160053 8 183 22.5 40.2 0.00 0.15 0.15 95 1005.3
20260507154555 8 170 24.1 37.0 0.00 0.15 0.15 95 1005.8
20260507153100 8 179 25.7 40.2 0.00 0.15 0.15 95 1006.1
20260507151552 8 175 22.5 37.0 0.00 0.13 0.13 95 1006.8
20260507150056 8 175 22.5 29.0 0.00 0.13 0.13 95 1007.2
20260507144555 7 170 19.3 32.2 0.00 0.13 0.13 95 1007.6